Location: Unspecified
(0.0000°N, 0.0000°E)
Time: 03:56:54
(UTC+00:00)

DMSP B5D2-5 - Visible Passes

Search period start: 27 February 2024 00:00
Search period end: 08 March 2024 00:00
Orbit: 711 x 813 km, 98.7° (Epoch: 26 February)

Date Brightness Start Highest point End Pass type
(mag) Time Alt. Az. Time Alt. Az. Time Alt. Az.
27 Feb 6.6 19:11:08 16° NE 19:11:08 16° NE 19:12:44 10° NNE visible
27 Feb 7.3 20:43:44 10° SSW 20:51:16 13° NW 20:51:52 10° NW visible
28 Feb 6.5 20:05:10 10° S 20:13:05 26° NNW 20:15:17 10° NNW visible
29 Feb 6.2 19:27:57 10° SE 19:34:53 24° NNE 19:37:18 10° N visible
29 Feb8.021:15:01WNW21:15:01WNW21:08:28SWvisible
01 Mar 6.9 18:56:43 11° ENE 18:56:43 11° ENE 18:57:14 10° NE visible
01 Mar 7.2 20:28:59 10° S 20:36:50 18° NW 20:38:21 10° NW visible
02 Mar 6.2 19:50:59 10° SSE 19:58:40 29° N 20:01:11 10° N visible
03 Mar 6.4 19:20:29 20° NE 19:20:29 20° NE 19:22:39 10° NNE visible
03 Mar 7.9 21:00:37 10° WNW 21:00:37 10° WNW 21:00:45 10° WNW visible
04 Mar 6.7 20:22:27 24° NNW 20:22:27 24° NNW 20:24:34 10° NNW visible
05 Mar 6.2 19:44:17 28° NNE 19:44:17 28° NNE 19:46:53 10° N visible
06 Mar 6.7 19:06:07 14° NE 19:06:07 14° NE 19:07:36 10° NE visible
06 Mar 7.5 20:46:15 16° NW 20:46:15 16° NW 20:47:26 10° NW visible
07 Mar 6.4 20:08:05 29° NNW 20:08:05 29° NNW 20:10:34 10° NNW visible
